"Timestamp","TZ","WindDir_Mean (deg)","WindSpd_Mean (km/h)","WindSpd_Min (km/h)","WindSpd_Max (km/h)","Temp_Mean (deg)","RH_Mean (%)","MSLP_Mean (hPa)","Rain_Acc (mm)","Rain_Intensity (mm/h)","Hail_Acc (hits/cm2)","Hail_Intensity (hits/cm2hr)","Solar_Mean (W/m2)"
2022/04/24 00:00:00.008,n,149,5.76,4.68,10.440002,18,75.7,1025.92,0,0,0,0,0.033073
2022/04/24 00:01:00.000,n,191,2.16,1.8,2.52,18,76,1025.92,0,0,0,0,0.035667
2022/04/24 00:02:00.001,n,251,2.16,1.8,2.52,18,76,1025.92,0,0,0,0,0.037422
2022/04/24 00:03:00.000,n,292,3.24,2.16,3.6,18,76.3,1025.92,0,0,0,0,0.03479
2022/04/24 00:04:00.000,n,192,3.96,3.6,4.68,18,76.1,1025.92,0,0,0,0,0.0383
2022/04/24 00:05:00.009,n,198,1.8,1.08,2.88,18,75.8,1025.92,0,0,0,0,0.041771
2022/04/24 00:06:00.006,n,234,0.72,0.36,0.72,18,76,1025.92,0,0,0,0,0.0383
2022/04/24 00:07:00.002,n,142,3.96,2.88,4.68,18,75.9,1025.92,0,0,0,0,0.037422
2022/04/24 00:08:00.000,n,158,0.36,0,0.36,18,75.9,1025.82,0,0,0,0,0.035667
2022/04/24 00:09:00.013,n,211,0.72,0.72,1.8,18,76.2,1025.82,0,0,0,0,0.035667
2022/04/24 00:10:00.000,n,289,1.8,0.36,3.6,18,75.9,1025.82,0,0,0,0,0.039177
2022/04/24 00:11:00.000,n,289,3.6,2.52,4.32,18,75.7,1025.82,0,0,0,0,0.039177
2022/04/24 00:12:00.003,n,192,2.52,1.8,3.6,18,75.9,1025.92,0,0,0,0,0.041771
2022/04/24 00:13:00.001,n,286,2.88,2.52,3.96,18,75.8,1025.92,0,0,0,0,0.039177
2022/04/24 00:14:00.000,n,9,0.72,0,1.44,18,75.8,1025.92,0,0,0,0,0.0383
2022/04/24 00:15:00.000,n,194,2.16,1.8,2.52,18,76,1025.92,0,0,0,0,0.041771
2022/04/24 00:16:00.008,n,183,1.8,1.44,2.16,18,76,1025.92,0,0,0,0,0.039177
2022/04/24 00:17:00.005,n,222,0.72,0.36,1.08,18,75.9,1026.02,0,0,0,0,0.040894
2022/04/24 00:18:00.001,n,174,2.52,1.8,3.24,18,75.7,1026.02,0,0,0,0,0.040894
2022/04/24 00:19:00.000,n,159,7.56,5.4,12.6,18,75.6,1026.02,0,0,0,0,0.037422
2022/04/24 00:20:00.000,n,116,2.16,0.36,2.88,17.9,75.4,1026.02,0,0,0,0,0.039177
2022/04/24 00:21:00.000,n,235,3.24,0.36,4.32,17.9,75.4,1026.02,0,0,0,0,0.0383
2022/04/24 00:22:00.000,n,248,2.16,1.8,2.88,17.9,75.5,1025.92,0,0,0,0,0.040016
2022/04/24 00:23:00.004,n,175,2.88,2.52,3.6,18,75.7,1025.92,0,0,0,0,0.039177
2022/04/24 00:24:00.001,n,98,0.72,0.36,1.44,18,75.7,1025.92,0,0,0,0,0.039177
2022/04/24 00:25:00.000,n,245,2.16,1.44,2.88,18,75.7,1025.92,0,0,0,0,0.044365
2022/04/24 00:26:00.011,n,280,1.44,0.72,1.8,17.9,75.6,1025.92,0,0,0,0,0.04612
2022/04/24 00:27:00.009,n,81,0.72,0,1.08,17.9,76,1025.92,0,0,0,0,0.043526
2022/04/24 00:28:00.000,n,154,7.2,1.08,12.6,17.9,75.4,1025.92,0,0,0,0,0.040894
2022/04/24 00:29:00.002,n,149,9.36,7.56,13.32,17.9,75.3,1025.82,0,0,0,0,0.041771
2022/04/24 00:30:00.000,n,190,3.96,3.6,4.32,17.9,75.3,1025.82,0,0,0,0,0.040894
2022/04/24 00:31:00.000,n,197,7.2,6.84,7.56,17.9,75.4,1025.82,0,0,0,0,0.041771
2022/04/24 00:32:00.000,n,186,7.2,6.48,8.28,17.9,75.4,1025.82,0,0,0,0,0.040894
2022/04/24 00:33:00.005,n,194,2.52,2.16,3.6,17.9,75.5,1025.82,0,0,0,0,0.040894
2022/04/24 00:34:00.002,n,184,6.12,5.04,7.2,17.9,75.5,1025.82,0,0,0,0,0.041771
2022/04/24 00:35:00.000,n,116,3.24,2.88,3.6,17.9,75.5,1025.82,0,0,0,0,0.040894
2022/04/24 00:36:00.012,n,172,4.68,4.32,5.76,17.9,75.5,1025.82,0,0,0,0,0.040016
2022/04/24 00:37:00.000,n,236,2.52,2.16,3.24,17.9,75.6,1025.72,0,0,0,0,0.039177
2022/04/24 00:38:00.000,n,287,1.8,1.08,3.24,17.9,75.6,1025.72,0,0,0,0,0.042648
2022/04/24 00:39:00.004,n,177,5.04,4.68,5.76,17.9,75.5,1025.62,0,0,0,0,0.041771
2022/04/24 00:40:00.001,n,237,1.8,1.08,2.16,17.9,75.4,1025.62,0,0,0,0,0.040894
2022/04/24 00:41:00.000,n,204,2.88,0.72,4.32,17.9,75.3,1025.62,0,0,0,0,0.041771
2022/04/24 00:42:00.000,n,276,3.6,2.88,4.32,17.9,75.4,1025.62,0,0,0,0,0.039177
2022/04/24 00:43:00.009,n,254,2.16,1.08,4.32,17.9,75.4,1025.62,0,0,0,0,0.039177
2022/04/24 00:44:00.005,n,281,4.32,3.24,4.68,17.9,75.4,1025.62,0,0,0,0,0.039177
2022/04/24 00:45:00.002,n,181,2.16,1.08,2.52,17.9,75.8,1025.62,0,0,0,0,0.0383
2022/04/24 00:46:00.000,n,250,3.6,2.52,4.32,17.9,75.4,1025.62,0,0,0,0,0.042648
2022/04/24 00:47:00.000,n,278,5.76,5.4,6.48,17.9,75.3,1025.62,0,0,0,0,0.042648
2022/04/24 00:48:00.003,n,227,5.04,4.68,5.04,17.9,75.5,1025.62,0,0,0,0,0.0383
2022/04/24 00:49:00.000,n,270,5.04,4.68,5.4,17.9,75.4,1025.62,0,0,0,0,0.040894
2022/04/24 00:50:00.000,n,251,1.8,1.44,2.16,17.9,75.5,1025.62,0,0,0,0,0.043526
2022/04/24 00:51:00.009,n,228,2.52,1.44,3.96,17.9,75.5,1025.72,0,0,0,0,0.043526
2022/04/24 00:52:00.006,n,205,2.16,2.16,2.52,17.9,75.5,1025.72,0,0,0,0,0.04612
2022/04/24 00:53:00.004,n,198,2.88,2.16,3.24,17.9,75.5,1025.72,0,0,0,0,0.044365
2022/04/24 00:54:00.001,n,292,5.04,3.96,5.76,17.9,75.5,1025.72,0,0,0,0,0.046997
2022/04/24 00:55:00.000,n,210,1.8,1.44,2.16,17.8,75.6,1025.72,0,0,0,0,0.041771
2022/04/24 00:56:00.000,n,213,3.96,2.88,5.4,17.9,75.5,1025.72,0,0,0,0,0.045242
2022/04/24 00:57:00.000,n,247,0.36,0.36,0.72,17.8,75.4,1025.72,0,0,0,0,0.04612
2022/04/24 00:58:00.005,n,200,1.8,1.44,1.8,17.8,75.6,1025.72,0,0,0,0,0.045242
2022/04/24 00:59:00.003,n,260,1.08,0.36,1.8,17.9,75.6,1025.72,0,0,0,0,0.043526
2022/04/24 01:00:00.000,n,196,1.8,1.8,2.52,17.9,75.5,1025.72,0,0,0,0,0.044365
2022/04/24 01:01:00.000,n,245,7.56,6.12,9.36,17.9,75,1025.72,0,0,0,0,0.047874
2022/04/24 01:02:00.010,n,20,1.08,0.36,1.44,17.8,75.3,1025.72,0,0,0,0,0.040894
2022/04/24 01:03:00.007,n,149,1.08,0,2.52,17.8,75.1,1025.72,0,0,0,0,0.044365
2022/04/24 01:04:00.000,n,249,2.88,2.52,3.6,17.8,75.3,1025.72,0,0,0,0,0.041771
2022/04/24 01:05:00.000,n,109,1.44,0.72,2.88,17.8,75.4,1025.72,0,0,0,0,0.040016
2022/04/24 01:06:00.000,n,155,3.96,3.24,4.68,17.8,75.1,1025.72,0,0,0,0,0.040016
2022/04/24 01:07:00.000,n,144,4.32,0.36,7.56,17.8,75.2,1025.72,0,0,0,0,0.040016
2022/04/24 01:08:00.008,n,179,10.8,7.92,14.04,17.8,75.2,1025.72,0,0,0,0,0.036545
2022/04/24 01:09:00.006,n,160,11.88,6.48,14.4,17.8,75.2,1025.72,0,0,0,0,0.042648
2022/04/24 01:10:00.002,n,154,9.36,6.48,12.24,17.8,75.2,1025.72,0,0,0,0,0.0383
2022/04/24 01:11:00.000,n,210,3.24,2.88,3.24,17.8,75.3,1025.62,0,0,0,0,0.041771
2022/04/24 01:12:00.013,n,329,0.72,0.36,1.8,17.7,75.3,1025.62,0,0,0,0,0.040894
2022/04/24 01:13:00.000,n,153,3.96,3.6,4.32,17.7,75.2,1025.62,0,0,0,0,0.0383
2022/04/24 01:14:00.000,n,132,0.36,0,1.08,17.7,75.5,1025.62,0,0,0,0,0.041771
2022/04/24 01:15:00.005,n,329,1.08,0.36,2.16,17.8,75.5,1025.52,0,0,0,0,0.035667
2022/04/24 01:16:00.001,n,168,0.72,0.36,0.72,17.8,76.1,1025.52,0,0,0,0,0.0383
2022/04/24 01:17:00.000,n,237,0.72,0.36,1.08,17.8,75.8,1025.62,0,0,0,0,0.037422
2022/04/24 01:18:00.000,n,265,1.8,1.44,2.16,17.8,75.5,1025.62,0,0,0,0,0.040016
2022/04/24 01:19:00.011,n,58,0.72,0,1.44,17.8,75.9,1025.62,0,0,0,0,0.040894
2022/04/24 01:20:00.008,n,44,1.08,0.72,1.44,17.8,75.8,1025.72,0,0,0,0,0.041771
2022/04/24 01:21:00.006,n,154,8.64,4.32,16.2,17.8,75.2,1025.72,0,0,0,0,0.040016
2022/04/24 01:22:00.000,n,301,1.08,0.72,1.44,17.8,75.3,1025.72,0,0,0,0,0.040016
2022/04/24 01:23:00.000,n,329,1.44,0.36,2.52,17.8,75.4,1025.72,0,0,0,0,0.039177
2022/04/24 01:24:00.000,n,242,1.44,1.44,1.44,17.8,75.5,1025.72,0,0,0,0,0.037422
2022/04/24 01:25:00.000,n,186,0.72,0.36,1.08,17.8,75.7,1025.82,0,0,0,0,0.037422
2022/04/24 01:26:00.008,n,331,2.52,2.16,2.88,17.8,76.2,1025.82,0,0,0,0,0.040016
2022/04/24 01:27:00.005,n,148,5.4,3.24,10.8,17.8,75.3,1025.72,0,0,0,0,0.037422
2022/04/24 01:28:00.002,n,184,3.6,2.16,4.68,17.8,75.2,1025.72,0,0,0,0,0.0383
2022/04/24 01:29:00.000,n,152,12.24,10.08,18.359998,17.8,75.1,1025.72,0,0,0,0,0.040016
2022/04/24 01:30:00.011,n,172,13.32,10.440002,17.28,17.8,75.1,1025.82,0,0,0,0,0.035667
2022/04/24 01:31:00.000,n,207,1.08,0.72,1.44,17.8,75,1025.82,0,0,0,0,0.035667
2022/04/24 01:32:00.000,n,204,3.24,1.8,3.96,17.8,75.1,1025.72,0,0,0,0,0.035667
2022/04/24 01:33:00.004,n,171,3.6,3.24,4.32,17.9,75.1,1025.72,0,0,0,0,0.039177
2022/04/24 01:34:00.001,n,171,16.2,9.72,19.08,17.9,75.1,1025.72,0,0,0,0,0.036545
2022/04/24 01:35:00.000,n,150,4.68,3.96,5.4,17.9,75.1,1025.72,0,0,0,0,0.037422
2022/04/24 01:36:00.000,n,178,3.6,2.16,4.68,17.9,75.1,1025.72,0,0,0,0,0.040894
2022/04/24 01:37:00.009,n,163,6.12,5.04,7.92,17.9,75.1,1025.72,0,0,0,0,0.035667
2022/04/24 01:38:00.006,n,175,4.32,1.08,5.76,17.9,75,1025.72,0,0,0,0,0.036545
2022/04/24 01:39:00.003,n,163,11.52,7.56,13.32,17.9,75,1025.62,0,0,0,0,0.037422
2022/04/24 01:40:00.000,n,195,10.08,8.64,11.16,17.9,74.9,1025.62,0,0,0,0,0.037422
2022/04/24 01:41:00.000,n,199,10.8,9.36,11.52,17.9,75,1025.62,0,0,0,0,0.036545
2022/04/24 01:42:00.000,n,170,13.32,7.56,17.64,17.9,75,1025.72,0,0,0,0,0.03479
2022/04/24 01:43:00.000,n,178,3.24,1.44,5.4,17.9,75,1025.72,0,0,0,0,0.03479
2022/04/24 01:44:00.004,n,195,4.68,3.6,5.4,17.9,75,1025.72,0,0,0,0,0.033951
2022/04/24 01:45:00.001,n,178,7.56,5.76,11.88,17.9,75,1025.72,0,0,0,0,0.032196
2022/04/24 01:46:00.000,n,209,8.28,7.56,9.36,17.9,75,1025.72,0,0,0,0,0.033073
2022/04/24 01:47:00.011,n,187,9.36,9.36,9.72,17.9,75,1025.72,0,0,0,0,0.033951
2022/04/24 01:48:00.008,n,203,8.64,7.92,10.08,17.9,75.1,1025.72,0,0,0,0,0.033951
2022/04/24 01:49:00.000,n,194,7.2,5.76,8.64,17.9,75,1025.62,0,0,0,0,0.032196
2022/04/24 01:50:00.002,n,188,8.28,6.12,10.08,17.9,75,1025.62,0,0,0,0,0.033073
2022/04/24 01:51:00.000,n,177,9.36,8.28,10.440002,17.9,74.9,1025.62,0,0,0,0,0.032196
2022/04/24 01:52:00.000,n,179,7.56,6.48,9,17.9,74.8,1025.72,0,0,0,0,0.033951
2022/04/24 01:53:00.000,n,143,6.12,4.68,6.48,17.9,74.8,1025.72,0,0,0,0,0.033951
2022/04/24 01:54:00.007,n,168,5.4,1.44,10.440002,17.9,74.9,1025.72,0,0,0,0,0.031319
2022/04/24 01:55:00.004,n,156,11.16,6.84,12.6,17.9,74.9,1025.72,0,0,0,0,0.033073
2022/04/24 01:56:00.001,n,198,3.96,2.88,5.76,17.9,74.9,1025.72,0,0,0,0,0.033951
2022/04/24 01:57:00.014,n,151,6.84,5.04,10.440002,17.9,75,1025.72,0.03,1.6,0,0,0.032196
2022/04/24 01:58:00.000,n,188,5.04,4.32,5.76,17.9,75.3,1025.72,0.03,0.2,0,0,0.03479
2022/04/24 01:59:00.000,n,179,7.2,6.48,7.92,17.9,75.3,1025.72,0.03,0,0,0,0.033951
2022/04/24 02:00:00.000,n,198,9.72,9,10.440002,17.9,75.2,1025.62,0.03,0,0,0,0.035667
2022/04/24 02:01:00.005,n,195,6.48,5.76,7.2,17.9,75.4,1025.62,0.03,0,0,0,0.030441
2022/04/24 02:02:00.000,n,227,2.16,1.8,3.24,17.9,75.5,1025.62,0.03,0,0,0,0.035667
2022/04/24 02:03:00.000,n,163,14.4,11.88,18,17.9,75.2,1025.62,0.03,0,0,0,0.031319
2022/04/24 02:04:00.004,n,187,9,8.28,9.72,17.8,75.2,1025.62,0.03,0,0,0,0.033951
2022/04/24 02:05:00.009,n,200,9,7.56,10.08,17.8,75.3,1025.52,0.03,0,0,0,0.033073
2022/04/24 02:06:00.014,n,182,7.56,5.4,10.08,17.8,75.2,1025.52,0.03,0,0,0,0.033073
2022/04/24 02:07:00.000,n,187,9,8.28,10.8,17.8,75.6,1025.52,0.03,0,0,0,0.031319
2022/04/24 02:08:00.000,n,168,6.48,5.76,7.2,17.8,75.9,1025.52,0.03,0,0,0,0.03479
2022/04/24 02:09:00.000,n,184,3.24,1.8,4.32,17.8,75.6,1025.52,0.03,0,0,0,0.029602
2022/04/24 02:10:00.003,n,156,7.2,5.76,11.52,17.8,75.9,1025.52,0.03,0,0,0,0.031319
2022/04/24 02:11:00.008,n,166,6.84,6.12,7.56,17.7,75.8,1025.42,0.03,0,0,0,0.028725
2022/04/24 02:12:00.000,n,166,6.48,5.4,11.88,17.7,75.9,1025.42,0.03,0,0,0,0.030441
2022/04/24 02:13:00.003,n,136,5.04,4.32,5.76,17.7,76.1,1025.42,0.03,0,0,0,0.029602
2022/04/24 02:14:00.008,n,118,1.8,1.08,2.16,17.7,76.2,1025.32,0.03,0,0,0,0.031319
2022/04/24 02:15:00.014,n,171,4.32,3.6,5.4,17.7,76.4,1025.32,0.03,0,0,0,0.028725
2022/04/24 02:16:00.002,n,171,3.6,2.52,4.68,17.6,76.2,1025.22,0.03,0,0,0,0.02697
2022/04/24 02:17:00.000,n,160,1.44,0.36,2.16,17.6,76.4,1025.22,0.03,0,0,0,0.023499
2022/04/24 02:18:00.000,n,128,5.76,4.32,7.56,17.6,76.1,1025.22,0.03,0,0,0,0.024376
2022/04/24 02:19:00.001,n,170,12.6,9,14.4,17.6,76,1025.22,0.03,0,0,0,0.022621
2022/04/24 02:20:00.007,n,170,7.56,6.48,11.88,17.6,75.8,1025.22,0.03,0,0,0,0.022621
2022/04/24 02:21:00.000,n,160,6.12,4.68,11.52,17.6,75.6,1025.22,0.03,0,0,0,0.01915
2022/04/24 02:22:00.002,n,156,10.08,5.04,13.32,17.6,75.7,1025.22,0.03,0,0,0,0.021744
2022/04/24 02:23:00.007,n,172,14.4,12.24,18.359998,17.6,75.7,1025.22,0.03,0,0,0,0.023499
2022/04/24 02:24:00.013,n,151,6.48,2.88,13.32,17.6,75.7,1025.22,0.03,0,0,0,0.020866
2022/04/24 02:25:00.001,n,109,2.52,0.72,5.76,17.6,75.7,1025.32,0.03,0,0,0,0.022621
2022/04/24 02:26:00.000,n,198,8.28,7.2,9.72,17.6,75.5,1025.32,0.03,0,0,0,0.017395
2022/04/24 02:27:00.000,n,171,3.6,2.88,4.32,17.6,75.5,1025.32,0.03,0,0,0,0.029602
2022/04/24 02:28:00.000,n,94,2.52,1.8,2.88,17.6,75.7,1025.32,0.03,0,0,0,0.035667
2022/04/24 02:29:00.004,n,169,6.48,4.68,12.24,17.6,75.7,1025.32,0.03,0,0,0,0.03479
2022/04/24 02:30:00.009,n,167,5.76,3.6,11.52,17.6,75.3,1025.32,0.03,0,0,0,0.03479
2022/04/24 02:31:00.000,n,137,2.52,2.16,3.24,17.5,75.5,1025.32,0.03,0,0,0,0.028725
2022/04/24 02:32:00.003,n,148,12.96,11.52,15.48,17.5,75.4,1025.32,0.03,0,0,0,0.031319
2022/04/24 02:33:00.010,n,148,9,3.96,12.6,17.5,75.2,1025.32,0.03,0,0,0,0.033073
2022/04/24 02:34:00.000,n,130,1.08,0.36,2.16,17.5,75.5,1025.42,0.03,0,0,0,0.03479
2022/04/24 02:35:00.000,n,248,6.84,4.68,8.28,17.6,75.3,1025.42,0.03,0,0,0,0.032196
2022/04/24 02:36:00.000,n,150,3.24,2.52,3.96,17.5,75,1025.42,0.03,0,0,0,0.030441
2022/04/24 02:37:00.000,n,169,11.52,8.64,15.48,17.6,74.7,1025.42,0.03,0,0,0,0.031319
2022/04/24 02:38:00.005,n,162,6.48,5.4,12.6,17.6,75,1025.42,0.03,0,0,0,0.029602
2022/04/24 02:39:00.010,n,153,9.36,7.92,11.16,17.6,74.9,1025.42,0.03,0,0,0,0.031319
2022/04/24 02:40:00.000,n,154,7.92,2.52,11.52,17.6,75,1025.52,0.03,0.3,0,0,0.033073
2022/04/24 02:41:00.005,n,179,12.24,10.08,15.48,17.6,74.8,1025.42,0.03,0,0,0,0.030441
2022/04/24 02:42:00.010,n,168,11.88,8.64,15.48,17.6,75,1025.42,0.03,0,0,0,0.029602
2022/04/24 02:43:00.000,n,191,9,5.76,11.88,17.6,74.9,1025.42,0.03,0,0,0,0.028725
2022/04/24 02:44:00.000,n,217,4.32,2.88,5.4,17.6,75.1,1025.42,0.03,0,0,0,0.027847
2022/04/24 02:45:00.000,n,180,12.6,11.88,17.28,17.6,74.9,1025.42,0.03,0,0,0,0.029602
2022/04/24 02:46:00.000,n,152,12.24,8.28,15.12,17.6,74.8,1025.42,0.03,0,0,0,0.028725
2022/04/24 02:47:00.007,n,193,5.4,2.52,9,17.6,74.8,1025.42,0.03,0,0,0,0.029602
2022/04/24 02:48:00.000,n,135,3.96,2.52,7.92,17.5,74.9,1025.42,0.03,0,0,0,0.029602
2022/04/24 02:49:00.001,n,61,0.72,0.36,1.08,17.5,75.3,1025.42,0.03,0,0,0,0.026093
2022/04/24 02:50:00.007,n,150,5.4,3.96,11.16,17.6,75.2,1025.42,0.03,0,0,0,0.02697
2022/04/24 02:51:00.012,n,143,10.440002,7.2,17.28,17.6,75,1025.52,0.03,0,0,0,0.027847
2022/04/24 02:52:00.000,n,132,6.48,5.4,6.84,17.6,74.9,1025.52,0.03,0,0,0,0.024376
2022/04/24 02:53:00.000,n,117,5.04,3.96,5.76,17.6,75.1,1025.52,0.03,0,0,0,0.029602
2022/04/24 02:54:00.000,n,151,7.56,7.2,8.28,17.6,75,1025.52,0.04,0,0,0,0.025215
2022/04/24 02:55:00.002,n,172,11.52,6.84,14.76,17.6,75.1,1025.52,0.04,0.1,0,0,0.031357
2022/04/24 02:56:00.007,n,162,11.16,6.84,12.96,17.6,75.3,1025.52,0.04,0,0,0,0.034828
2022/04/24 02:57:00.000,n,184,10.440002,8.28,11.88,17.5,75.8,1025.52,0.04,0,0,0,0.032234
2022/04/24 02:58:00.002,n,163,12.24,10.440002,16.2,17.5,76,1025.52,0.04,0,0,0,0.031357
2022/04/24 02:59:00.009,n,206,8.64,6.48,15.48,17.5,76.6,1025.42,0.04,0,0,0,0.033073
2022/04/24 03:00:00.014,n,200,6.84,5.76,10.08,17.4,76.4,1025.42,0.04,0,0,0,0.033951
2022/04/24 03:01:00.000,n,174,6.48,0.72,9.36,17.4,76.5,1025.42,0.04,0,0,0,0.032234
2022/04/24 03:02:00.000,n,210,8.64,7.56,11.52,17.3,76.9,1025.42,0.04,0,0,0,0.033073
2022/04/24 03:03:00.000,n,212,3.96,3.6,4.68,17.3,77.5,1025.42,0.04,0,0,0,0.032234
2022/04/24 03:04:00.002,n,178,7.92,5.4,11.16,17.3,77.4,1025.42,0.04,0,0,0,0.034828
2022/04/24 03:05:00.007,n,205,9,7.92,11.16,17.3,77.5,1025.42,0.04,0,0,0,0.033073
2022/04/24 03:06:00.000,n,177,12.6,9.36,14.76,17.3,77.6,1025.42,0.04,0,0,0,0.029602
2022/04/24 03:07:00.002,n,176,12.6,10.08,15.48,17.3,77.8,1025.42,0.04,0,0,0,0.030441
2022/04/24 03:08:00.007,n,185,9,8.28,14.04,17.3,78,1025.42,0.04,0,0,0,0.029602
2022/04/24 03:09:00.013,n,159,2.52,1.8,3.6,17.3,78,1025.42,0.04,0,0,0,0.034828
2022/04/24 03:10:00.001,n,135,1.8,1.08,2.88,17.2,78.4,1025.42,0.04,0,0,0,0.029602
2022/04/24 03:11:00.000,n,147,6.48,3.24,10.8,17.2,78.5,1025.52,0.04,0,0,0,0.030441
2022/04/24 03:12:00.000,n,196,7.56,6.84,7.92,17.2,78.6,1025.52,0.04,0,0,0,0.029602
2022/04/24 03:13:00.002,n,167,9,8.28,12.6,17.2,79,1025.42,0.04,0,0,0,0.027847
2022/04/24 03:14:00.008,n,190,11.16,10.08,14.76,17.2,79,1025.42,0.04,0,0,0,0.027008
2022/04/24 03:15:00.000,n,198,9,6.12,13.68,17.2,79.2,1025.42,0.04,0,0,0,0.028725
2022/04/24 03:16:00.003,n,158,7.92,5.76,15.48,17.2,79.4,1025.42,0.04,0,0,0,0.033989
2022/04/24 03:17:00.007,n,173,9.36,7.56,11.52,17.1,79.6,1025.42,0.04,0,0,0,0.033989
2022/04/24 03:18:00.013,n,171,3.96,2.88,5.76,17.1,80,1025.42,0.04,0,0,0,0.032234
2022/04/24 03:19:00.001,n,131,3.96,1.8,6.48,17.1,80.2,1025.42,0.04,0,0,0,0.032234
2022/04/24 03:20:00.000,n,157,14.04,11.88,16.2,17.1,80.3,1025.42,0.04,0,0,0,0.040054
2022/04/24 03:21:00.000,n,225,2.16,0.72,2.52,17.1,80.5,1025.42,0.04,0,0,0,0.032234
2022/04/24 03:22:00.001,n,209,12.6,11.52,15.12,17.1,80.5,1025.42,0.04,0,0,0,0.030479
2022/04/24 03:23:00.007,n,213,11.16,8.28,12.96,17.1,80.6,1025.42,0.04,0,0,0,0.033112
2022/04/24 03:24:00.000,n,174,16.2,11.52,21.24,17.1,80.7,1025.42,0.04,0,0,0,0.032234
2022/04/24 03:25:00.001,n,138,7.2,6.48,7.92,17.1,80.6,1025.42,0.04,0,0,0,0.02964
2022/04/24 03:26:00.006,n,161,12.24,9.36,16.919998,17.1,80.6,1025.42,0.04,0,0,0,0.02964
2022/04/24 03:27:00.012,n,177,5.4,3.6,6.84,17.1,80.7,1025.52,0.04,0,0,0,0.02964
2022/04/24 03:28:00.000,n,161,9,7.2,15.12,17.2,80.7,1025.52,0.04,0,0,0,0.030479
2022/04/24 03:29:00.000,n,144,8.64,7.92,9.36,17.2,80.6,1025.52,0.04,0,0,0,0.031357
2022/04/24 03:30:00.000,n,182,3.96,2.88,4.68,17.2,80.7,1025.52,0.04,0,0,0,0.028763
2022/04/24 03:31:00.000,n,128,7.2,6.12,8.28,17.2,80.8,1025.52,0.04,0,0,0,0.031357
2022/04/24 03:32:00.005,n,209,2.16,1.08,2.88,17.2,81,1025.62,0.04,0,0,0,0.032234
2022/04/24 03:33:00.011,n,154,4.32,3.6,5.04,17.2,81,1025.62,0.04,0,0,0,0.02964
2022/04/24 03:34:00.000,n,214,1.08,0.72,1.44,17.2,81.1,1025.62,0.04,0,0,0,0.025253
2022/04/24 03:35:00.014,n,194,1.8,0.72,2.52,17.2,81.2,1025.62,0.04,0,0,0,0.028763
2022/04/24 03:36:00.010,n,159,3.96,3.24,4.32,17.2,81.2,1025.62,0.04,0,0,0,0.02964
2022/04/24 03:37:00.000,n,212,0.36,0,0.36,17.2,81.4,1025.62,0.07,1.9,0,0,0.026131
2022/04/24 03:38:00.000,n,158,4.32,3.6,5.4,17.2,81.6,1025.62,0.07,0,0,0,0.027008
2022/04/24 03:39:00.003,n,151,5.4,2.52,6.48,17.2,81.7,1025.62,0.07,0,0,0,0.028763
2022/04/24 03:40:00.000,n,102,1.08,0,2.52,17.2,81.7,1025.62,0.07,0,0,0,0.028763
2022/04/24 03:41:00.000,n,234,4.32,2.88,5.4,17.2,81.7,1025.52,0.07,0,0,0,0.032234
2022/04/24 03:42:00.000,n,224,4.68,4.32,6.12,17.2,81.8,1025.52,0.07,0,0,0,0.030479
2022/04/24 03:43:00.010,n,269,2.16,1.08,3.96,17.2,82.1,1025.52,0.07,0,0,0,0.030479
2022/04/24 03:44:00.006,n,259,4.68,3.6,5.76,17.2,81.8,1025.52,0.07,0,0,0,0.031357
2022/04/24 03:45:00.005,n,302,3.96,3.6,5.4,17.2,82.4,1025.42,0.07,0,0,0,0.02964
2022/04/24 03:46:00.002,n,287,5.4,4.68,6.84,17.2,82.1,1025.42,0.07,0,0,0,0.027847
2022/04/24 03:47:00.000,n,273,6.84,6.12,8.28,17.2,81.6,1025.42,0.07,0,0,0,0.028763
2022/04/24 03:48:00.000,n,277,5.76,5.04,6.48,17.1,81.7,1025.42,0.07,0,0,0,0.028763
2022/04/24 03:49:00.000,n,268,4.32,3.96,5.4,17.1,82.1,1025.42,0.07,0,0,0,0.027008
2022/04/24 03:50:00.009,n,192,3.6,2.88,3.96,17.1,82.2,1025.42,0.07,0,0,0,0.027008
2022/04/24 03:51:00.005,n,266,4.32,3.6,5.04,17.1,82.1,1025.42,0.07,0,0,0,0.024414
2022/04/24 03:52:00.003,n,256,2.16,1.8,3.6,17.1,82.1,1025.42,0.07,0,0,0,0.031357
2022/04/24 03:53:00.001,n,207,7.2,4.68,9.36,17,82.1,1025.32,0.07,0,0,0,0.027008
2022/04/24 03:54:00.015,n,259,2.88,2.16,3.24,17,82.1,1025.32,0.07,0,0,0,0.028763
2022/04/24 03:55:00.000,n,150,3.24,1.08,5.76,17,82,1025.32,0.07,0,0,0,0.031357
2022/04/24 03:56:00.000,n,245,2.88,1.8,3.6,17,82,1025.32,0.07,0,0,0,0.027847
2022/04/24 03:57:00.005,n,285,4.32,3.96,4.68,17,82.4,1025.32,0.07,0,0,0,0.030479
2022/04/24 03:58:00.002,n,255,3.96,3.6,4.32,17,82.2,1025.32,0.07,0,0,0,0.031357
2022/04/24 03:59:00.000,n,284,3.96,2.88,5.04,17,82.6,1025.32,0.07,0,0,0,0.02964
2022/04/24 04:00:00.000,n,280,2.52,2.52,2.88,17,82.4,1025.32,0.07,0,0,0,0.030479
2022/04/24 04:01:00.010,n,269,5.76,3.24,6.84,17,81.9,1025.32,0.07,0,0,0,0.027847
2022/04/24 04:02:00.006,n,183,1.44,0.72,2.16,16.9,82.3,1025.32,0.07,0,0,0,0.027008
2022/04/24 04:03:00.003,n,38,0.72,0,1.44,16.9,82.1,1025.32,0.07,0,0,0,0.026131
2022/04/24 04:04:00.001,n,220,2.88,1.8,3.6,16.9,82.2,1025.32,0.07,0,0,0,0.030479
2022/04/24 04:05:00.000,n,265,6.12,5.76,6.48,16.9,81.9,1025.32,0.07,0,0,0,0.030479
2022/04/24 04:06:00.000,n,214,3.24,2.88,3.96,16.9,81.9,1025.42,0.07,0,0,0,0.030479
2022/04/24 04:07:00.000,n,229,1.8,1.44,2.52,16.9,81.8,1025.42,0.07,0,0,0,0.027008
2022/04/24 04:08:00.007,n,162,1.8,1.08,2.88,16.9,82,1025.42,0.07,0,0,0,0.027008
2022/04/24 04:09:00.004,n,291,2.16,1.44,2.88,16.8,81.9,1025.42,0.07,0,0,0,0.027008
2022/04/24 04:10:00.002,n,179,5.76,4.32,7.2,16.8,81.5,1025.42,0.07,0,0,0,0.027847
2022/04/24 04:11:00.000,n,194,2.52,0.36,3.96,16.8,81.6,1025.42,0.07,0,0,0,0.027008
2022/04/24 04:12:00.012,n,165,7.56,7.2,8.28,16.8,81.3,1025.42,0.07,0,0,0,0.024414
2022/04/24 04:13:00.000,n,209,2.16,2.16,2.52,16.700002,81.1,1025.42,0.07,0,0,0,0.026131
2022/04/24 04:14:00.000,n,213,2.52,2.16,2.52,16.8,81.3,1025.42,0.07,0,0,0,0.025253
2022/04/24 04:15:00.005,n,268,6.12,4.68,6.84,16.8,81.4,1025.42,0.07,0,0,0,0.02964
2022/04/24 04:16:00.002,n,234,3.6,2.52,3.96,16.8,81.3,1025.42,0.07,0,0,0,0.026131
2022/04/24 04:17:00.000,n,117,1.08,0.72,1.8,16.8,81.3,1025.42,0.07,0,0,0,0.026131
2022/04/24 04:18:00.000,n,20,0.72,0,1.08,16.8,81.2,1025.42,0.07,0,0,0,0.026131
2022/04/24 04:19:00.010,n,290,4.32,3.6,4.68,16.8,81.3,1025.32,0.07,0,0,0,0.026131
2022/04/24 04:20:00.006,n,208,2.88,2.52,4.32,16.8,81.3,1025.32,0.07,0,0,0,0.026131
2022/04/24 04:21:00.004,n,288,3.24,2.52,3.6,16.8,80.9,1025.32,0.07,0,0,0,0.026131
2022/04/24 04:22:00.000,n,167,0.72,0.36,0.72,16.8,81.6,1025.42,0.07,0,0,0,0.032234
2022/04/24 04:23:00.000,n,214,3.96,3.6,4.32,16.8,81,1025.42,0.07,0,0,0,0.027008
2022/04/24 04:24:00.000,n,151,3.24,2.88,3.6,16.8,80.5,1025.42,0.07,0,0,0,0.026131
2022/04/24 04:25:00.000,n,241,4.32,2.88,5.76,16.8,80.4,1025.42,0.07,0,0,0,0.026131
2022/04/24 04:26:00.008,n,124,4.68,3.6,5.04,16.8,80.4,1025.42,0.07,0,0,0,0.030479
2022/04/24 04:27:00.005,n,216,1.08,0,1.8,16.8,80.6,1025.42,0.07,0,0,0,0.026131
2022/04/24 04:28:00.002,n,144,5.4,4.32,5.4,16.8,80.7,1025.42,0.07,0,0,0,0.027847
2022/04/24 04:29:00.000,n,188,2.52,1.8,3.6,16.8,80.3,1025.52,0.07,0,0,0,0.025253
2022/04/24 04:30:00.014,n,158,2.88,1.08,3.96,16.700002,80.4,1025.52,0.07,0,0,0,0.028763
2022/04/24 04:31:00.000,n,266,1.8,1.08,2.52,16.700002,80.4,1025.52,0.07,0,0,0,0.028763
2022/04/24 04:32:00.000,n,179,5.76,5.76,6.48,16.700002,80.5,1025.52,0.07,0,0,0,0.026131
2022/04/24 04:33:00.005,n,201,3.6,3.24,3.96,16.700002,80.4,1025.52,0.07,0,0,0,0.027008
2022/04/24 04:34:00.002,n,199,2.16,0.72,3.96,16.8,80.7,1025.52,0.07,0,0,0,0.027847
2022/04/24 04:35:00.000,n,183,2.88,2.16,3.6,16.8,80.7,1025.52,0.07,0,0,0,0.025253
2022/04/24 04:36:00.000,n,155,2.16,0.72,3.6,16.8,80.4,1025.52,0.07,0,0,0,0.025253
2022/04/24 04:37:00.010,n,144,1.08,0.72,1.44,16.8,80.3,1025.52,0.07,0,0,0,0.023499
2022/04/24 04:38:00.006,n,210,1.08,0.72,2.88,16.8,80.2,1025.62,0.07,0,0,0,0.025253
2022/04/24 04:39:00.005,n,246,1.44,1.44,2.16,16.8,80.2,1025.62,0.07,0,0,0,0.027008
2022/04/24 04:40:00.000,n,123,2.88,2.52,3.6,16.8,80.5,1025.72,0.07,0,0,0,0.026131
2022/04/24 04:41:00.000,n,262,2.16,1.8,3.24,16.8,80.5,1025.72,0.07,0,0,0,0.025253
2022/04/24 04:42:00.000,n,193,3.24,2.52,4.32,16.8,80.3,1025.72,0.07,0,0,0,0.026131
2022/04/24 04:43:00.000,n,257,2.88,2.16,3.24,16.8,80.3,1025.82,0.07,0,0,0,0.024414
2022/04/24 04:44:00.008,n,138,0.72,0.36,0.72,16.8,80.3,1025.82,0.07,0,0,0,0.026131
2022/04/24 04:45:00.004,n,297,3.6,2.88,4.32,16.8,80.7,1025.82,0.07,0,0,0,0.025253
2022/04/24 04:46:00.002,n,263,2.16,1.8,2.88,16.8,80.2,1025.82,0.07,0,0,0,0.027008
2022/04/24 04:47:00.000,n,70,0.72,0,1.08,16.8,80.2,1025.92,0.07,0,0,0,0.027008
2022/04/24 04:48:00.013,n,328,1.08,0.72,1.08,16.8,80.3,1025.92,0.07,0,0,0,0.024414